Precipitable_Water
0.27 0.26 0.25 0.26 0.25 0.24 0.23 0.22 0.22 0.24 0.23 0.23 0.23 0.23 0.24 0.25 0.24 0.21 0.19 0.17 0.16 0.18 0.20 0.21 0.22 0.26 0.24 0.24 0.23 0.23 0.22 0.23 0.18 0.21 0.24 0.26 0.26 0.26 0.27 0.30 0.31 0.31 0.31
0.27 0.25 0.25 0.26 0.26 0.23 0.22 0.23 0.23 0.23 0.24 0.23 0.24 0.23 0.24 0.23 0.23 0.21 0.19 0.19 0.17 0.17 0.19 0.21 0.23 0.26 0.23 0.24 0.23 0.23 0.24 0.26 0.23 0.19 0.24 0.25 0.27 0.29 0.30 0.30 0.30 0.32 0.32
0.27 0.26 0.25 0.24 0.23 0.21 0.21 0.22 0.22 0.23 0.23 0.24 0.24 0.23 0.22 0.23 0.23 0.23 0.22 0.21 0.19 0.20 0.21 0.22 0.22 0.22 0.22 0.24 0.24 0.24 0.25 0.26 0.26 0.25 0.23 0.29 0.29 0.32 0.31 0.32 0.32 0.34 0.36
0.26 0.25 0.23 0.23 0.22 0.21 0.21 0.22 0.22 0.24 0.24 0.24 0.24 0.24 0.24 0.24 0.24 0.24 0.23 0.22 0.20 0.20 0.21 0.22 0.22 0.22 0.23 0.23 0.24 0.24 0.26 0.27 0.27 0.26 0.26 0.27 0.30 0.33 0.33 0.31 0.30 0.35 0.35
0.24 0.24 0.24 0.23 0.24 0.22 0.22 0.22 0.22 0.24 0.25 0.25 0.24 0.25 0.26 0.25 0.25 0.24 0.24 0.22 0.20 0.20 0.21 0.22 0.23 0.25 0.25 0.26 0.26 0.26 0.27 0.26 0.27 0.27 0.28 0.29 0.30 0.31 0.31 0.34 0.33 0.34 0.36
0.23 0.23 0.25 0.23 0.23 0.22 0.22 0.22 0.21 0.25 0.25 0.25 0.25 0.26 0.26 0.26 0.26 0.26 0.25 0.22 0.21 0.21 0.21 0.22 0.23 0.24 0.26 0.26 0.28 0.30 0.31 0.29 0.29 0.30 0.31 0.31 0.32 0.35 0.36 0.35 0.35 0.32 0.28
0.23 0.25 0.24 0.22 0.22 0.23 0.23 0.23 0.23 0.24 0.25 0.25 0.26 0.27 0.26 0.26 0.26 0.26 0.23 0.22 0.22 0.22 0.22 0.23 0.23 0.24 0.26 0.27 0.29 0.31 0.32 0.35 0.37 0.36 0.34 0.36 0.36 0.39 0.39 0.36 0.35 0.34 0.33
0.23 0.24 0.23 0.22 0.23 0.25 0.25 0.24 0.24 0.25 0.26 0.26 0.27 0.27 0.26 0.26 0.26 0.24 0.23 0.23 0.21 0.22 0.23 0.24 0.24 0.24 0.26 0.28 0.29 0.30 0.32 0.35 0.38 0.41 0.41 0.42 0.43 0.43 0.42 0.40 0.39 0.38 0.39
0.22 0.23 0.23 0.23 0.24 0.25 0.25 0.25 0.25 0.26 0.26 0.27 0.27 0.26 0.24 0.23 0.24 0.26 0.24 0.23 0.21 0.22 0.23 0.25 0.25 0.25 0.27 0.29 0.29 0.29 0.32 0.35 0.42 0.44 0.45 0.45 0.45 0.44 0.43 0.41 0.37 0.35 0.33
0.23 0.24 0.25 0.25 0.25 0.24 0.25 0.26 0.26 0.27 0.26 0.27 0.25 0.23 0.23 0.22 0.26 0.27 0.26 0.23 0.22 0.23 0.24 0.25 0.26 0.26 0.27 0.29 0.30 0.31 0.31 0.35 0.39 0.40 0.42 0.42 0.43 0.43 0.44 0.44 0.41 0.36 0.35
0.26 0.26 0.26 0.26 0.25 0.25 0.26 0.26 0.26 0.26 0.26 0.24 0.21 0.23 0.22 0.23 0.25 0.27 0.26 0.24 0.24 0.24 0.24 0.24 0.25 0.26 0.28 0.30 0.33 0.34 0.35 0.39 0.40 0.40 0.39 0.40 0.41 0.42 0.42 0.44 0.45 0.42 0.37
0.27 0.26 0.25 0.26 0.25 0.25 0.25 0.25 0.26 0.25 0.23 0.21 0.21 0.20 0.22 0.24 0.25 0.25 0.25 0.26 0.26 0.25 0.24 0.25 0.26 0.27 0.28 0.31 0.33 0.36 0.38 0.40 0.40 0.38 0.38 0.38 0.38 0.38 0.41 0.43 0.45 0.46 0.46
0.27 0.25 0.25 0.26 0.25 0.24 0.23 0.24 0.23 0.24 0.21 0.20 0.20 0.20 0.20 0.24 0.26 0.26 0.26 0.26 0.26 0.25 0.27 0.27 0.27 0.27 0.29 0.31 0.33 0.35 0.38 0.40 0.39 0.36 0.36 0.37 0.39 0.41 0.42 0.43 0.44 0.45 0.46
0.25 0.25 0.26 0.26 0.24 0.25 0.25 0.25 0.24 0.23 0.21 0.20 0.20 0.20 0.22 0.23 0.25 0.25 0.26 0.26 0.26 0.27 0.28 0.27 0.27 0.27 0.29 0.30 0.32 0.36 0.40 0.41 0.39 0.37 0.38 0.39 0.41 0.40 0.40 0.43 0.42 0.43 0.42
0.26 0.26 0.26 0.27 0.25 0.24 0.25 0.25 0.25 0.26 0.25 0.22 0.22 0.22 0.22 0.22 0.25 0.26 0.26 0.25 0.26 0.28 0.27 0.26 0.24 0.24 0.25 0.28 0.31 0.35 0.39 0.40 0.37 0.38 0.38 0.39 0.39 0.40 0.40 0.42 0.43 0.42 0.40
0.28 0.27 0.28 0.28 0.27 0.26 0.26 0.25 0.29 0.28 0.29 0.28 0.27 0.27 0.27 0.28 0.28 0.26 0.25 0.26 0.27 0.28 0.26 0.23 0.22 0.23 0.25 0.27 0.30 0.33 0.38 0.38 0.37 0.38 0.38 0.39 0.39 0.40 0.40 0.42 0.43 0.42 0.40
0.30 0.30 0.30 0.31 0.29 0.27 0.27 0.25 0.22 0.28 0.31 0.28 0.27 0.28 0.29 0.28 0.27 0.25 0.25 0.25 0.27 0.27 0.23 0.23 0.23 0.24 0.25 0.28 0.31 0.34 0.37 0.39 0.40 0.38 0.39 0.40 0.40 0.41 0.40 0.40 0.41 0.41 0.39
0.35 0.33 0.33 0.34 0.32 0.31 0.29 0.26 0.26 0.26 0.23 0.23 0.27 0.27 0.28 0.27 0.26 0.26 0.26 0.25 0.23 0.25 0.24 0.23 0.24 0.25 0.26 0.29 0.32 0.35 0.38 0.40 0.39 0.39 0.39 0.40 0.40 0.40 0.40 0.40 0.40 0.39 0.38
0.37 0.36 0.35 0.37 0.35 0.33 0.31 0.28 0.29 0.28 0.25 0.24 0.25 0.26 0.28 0.26 0.26 0.26 0.26 0.23 0.23 0.23 0.24 0.24 0.25 0.26 0.27 0.30 0.33 0.36 0.39 0.40 0.40 0.40 0.40 0.40 0.41 0.41 0.40 0.41 0.40 0.39 0.39
0.42 0.39 0.38 0.38 0.37 0.34 0.31 0.28 0.28 0.26 0.25 0.24 0.23 0.23 0.25 0.25 0.22 0.23 0.24 0.23 0.24 0.24 0.25 0.25 0.26 0.27 0.28 0.30 0.33 0.36 0.39 0.41 0.41 0.41 0.40 0.41 0.42 0.42 0.41 0.41 0.40 0.38 0.38
0.42 0.41 0.40 0.40 0.38 0.34 0.31 0.30 0.28 0.26 0.25 0.24 0.23 0.26 0.25 0.24 0.23 0.23 0.23 0.23 0.23 0.25 0.25 0.26 0.26 0.28 0.29 0.30 0.33 0.36 0.38 0.40 0.42 0.42 0.42 0.42 0.43 0.42 0.42 0.42 0.41 0.40 0.39
0.44 0.43 0.42 0.40 0.38 0.34 0.33 0.32 0.28 0.28 0.27 0.24 0.24 0.25 0.26 0.25 0.24 0.24 0.24 0.24 0.24 0.26 0.27 0.27 0.27 0.28 0.29 0.30 0.33 0.35 0.38 0.40 0.41 0.43 0.43 0.43 0.44 0.44 0.44 0.42 0.40 0.40 0.39
0.47 0.44 0.42 0.40 0.37 0.36 0.35 0.32 0.30 0.29 0.27 0.25 0.25 0.24 0.25 0.24 0.24 0.24 0.24 0.24 0.24 0.25 0.27 0.27 0.27 0.28 0.30 0.32 0.35 0.37 0.38 0.40 0.42 0.44 0.43 0.43 0.44 0.44 0.43 0.42 0.40 0.39 0.38
0.48 0.45 0.41 0.39 0.38 0.38 0.37 0.34 0.33 0.33 0.30 0.27 0.24 0.24 0.23 0.24 0.24 0.24 0.24 0.24 0.24 0.24 0.26 0.27 0.27 0.29 0.30 0.32 0.35 0.39 0.41 0.43 0.45 0.45 0.46 0.45 0.44 0.44 0.43 0.42 0.41 0.39 0.37
0.49 0.46 0.42 0.39 0.39 0.40 0.39 0.37 0.37 0.36 0.32 0.27 0.25 0.25 0.25 0.25 0.24 0.24 0.23 0.24 0.23 0.23 0.24 0.26 0.27 0.29 0.31 0.32 0.35 0.39 0.42 0.44 0.45 0.47 0.47 0.46 0.45 0.44 0.43 0.42 0.41 0.39 0.37
0.49 0.47 0.43 0.41 0.43 0.44 0.41 0.39 0.39 0.37 0.32 0.29 0.27 0.26 0.25 0.25 0.23 0.22 0.23 0.23 0.23 0.23 0.24 0.26 0.27 0.29 0.31 0.33 0.36 0.39 0.41 0.44 0.45 0.47 0.48 0.46 0.44 0.43 0.43 0.40 0.39 0.38 0.36
Wind_Speed
9 8 7 6 6 6 6 6 6 7 8 9 10 11 13 13 16 18 20 22 24 26 28 30 31 32 34 36 38 40 42 43 45 47 48 50 51 51 51 51 50 49 50
9 8 7 6 6 5 5 6 6 7 8 9 10 12 13 14 17 19 21 24 26 28 30 32 33 35 37 38 41 42 44 45 47 50 51 52 52 51 51 49 47 46 46
9 8 7 6 6 5 6 6 7 7 8 9 11 12 14 15 18 20 23 26 28 30 32 34 35 37 39 40 43 44 45 47 49 50 52 52 52 50 48 46 44 42 40
9 8 7 7 6 6 6 6 6 7 8 10 11 13 15 16 19 22 25 27 29 31 33 35 36 38 40 43 45 46 47 49 50 51 51 51 49 47 45 43 40 38 37
10 9 8 7 6 5 5 5 6 7 8 10 11 14 16 18 20 23 26 29 30 32 35 37 38 40 42 45 46 47 49 50 50 50 49 48 46 44 41 39 38 38 36
10 9 8 7 6 5 5 5 7 7 9 11 13 15 17 19 22 25 27 30 32 35 37 38 40 41 44 46 47 48 49 50 50 48 46 45 43 41 39 38 37 35 34
11 10 8 8 7 6 6 6 7 8 10 12 14 16 18 20 23 27 29 31 34 36 38 40 41 43 45 46 48 49 48 48 47 46 44 42 41 40 40 38 37 36 35
12 11 9 8 8 7 7 8 9 10 12 14 16 18 20 22 25 28 30 32 35 37 39 41 42 45 46 48 49 49 48 46 44 42 41 40 41 41 40 40 39 38 36
13 12 10 9 8 8 8 9 10 11 13 15 17 20 22 24 27 29 31 33 36 38 39 41 43 45 47 49 49 49 48 45 43 41 41 42 43 43 42 41 39 37 35
15 14 12 10 9 9 9 10 11 13 15 16 19 21 23 25 27 30 32 35 37 39 41 41 44 46 48 49 48 48 47 45 44 42 41 42 43 42 40 38 37 33 32
17 15 14 12 11 11 11 12 13 14 16 18 20 22 24 26 28 30 33 36 38 40 41 43 45 47 48 48 48 46 46 45 43 42 43 42 41 39 38 34 31 28 27
19 17 16 15 13 13 13 14 15 16 18 19 21 23 25 26 29 31 34 37 39 40 42 44 45 47 47 47 46 45 44 42 41 42 42 41 38 37 35 30 26 24 23
21 19 18 17 16 15 15 16 16 18 19 20 22 24 26 27 29 32 34 37 39 40 41 43 45 46 46 46 45 44 42 40 40 41 40 38 36 34 31 27 24 21 19
22 21 20 19 18 17 17 18 18 19 20 22 23 25 26 28 30 32 34 37 39 40 41 42 44 45 44 45 44 42 39 39 39 40 38 35 33 30 28 25 23 21 20
22 22 21 20 19 19 19 19 20 21 21 22 24 25 26 29 30 32 35 38 39 40 41 42 43 44 44 44 43 41 38 37 38 38 36 33 30 28 26 24 23 21 18
23 22 21 21 20 19 19 20 21 21 22 23 24 25 27 29 30 33 35 38 39 40 40 42 43 43 44 43 42 39 37 36 36 35 33 30 29 27 26 24 21 20 18
24 22 22 21 21 20 20 20 21 22 23 24 25 26 27 28 31 33 35 37 38 39 39 41 41 42 43 42 40 38 35 34 33 33 31 30 29 26 24 22 21 20 18
24 24 23 22 22 21 21 22 22 22 23 24 25 26 26 28 31 33 35 36 37 37 38 40 41 41 42 41 39 36 33 31 31 31 30 28 26 24 23 22 20 19 18
25 25 24 23 23 22 22 22 23 23 24 25 25 26 27 29 30 32 34 35 36 37 38 39 40 40 41 40 38 35 32 29 28 28 28 26 24 23 21 20 19 19 18
26 26 25 24 23 23 23 23 23 24 24 25 25 26 27 28 30 31 33 34 35 36 38 38 39 40 40 39 37 34 31 28 26 26 26 24 22 21 20 19 18 17 17
27 27 26 25 24 24 24 24 24 24 24 25 25 26 27 28 30 31 32 33 34 36 37 37 38 39 39 38 36 34 30 27 25 24 23 22 20 19 18 18 17 16 15
27 27 26 25 25 24 24 24 23 24 24 24 25 26 27 28 29 31 31 32 34 35 36 37 37 37 38 37 36 33 29 26 23 22 22 21 19 18 17 17 16 15 13
28 27 27 26 25 24 23 23 23 23 24 24 25 26 27 28 29 30 31 32 33 34 35 35 36 36 37 37 35 32 29 25 22 21 20 19 18 17 17 16 15 13 11
29 28 27 26 25 24 23 23 23 23 24 25 25 25 26 27 29 29 30 31 32 33 34 34 35 36 36 36 34 32 29 25 21 19 18 17 17 16 15 14 12 10 8
29 29 28 26 25 24 23 23 23 24 24 24 25 25 26 28 27 28 29 30 31 32 33 33 34 35 35 35 33 31 28 23 20 18 17 16 15 15 14 12 10 8 6
30 29 28 27 26 25 24 24 24 24 24 25 25 26 26 26 27 28 28 29 30 31 32 32 33 34 34 34 32 30 26 21 18 17 15 14 13 13 11 9 7 6 5
Wind_Direction
225 233 239 248 263 277 287 297 303 312 318 323 328 331 332 332 333 334 335 335 334 333 331 329 328 326 325 323 323 321 319 316 313 312 312 311 310 308 306 304 302 299 297
224 227 234 246 260 274 288 298 305 312 318 324 328 331 331 330 331 333 334 334 333 332 330 329 328 326 324 323 323 321 320 318 316 314 314 313 311 310 307 305 304 301 299
220 225 233 244 256 273 286 297 306 312 320 325 328 329 330 330 331 332 333 333 333 331 330 329 327 326 325 324 323 322 321 319 317 315 315 314 312 311 309 308 306 304 303
221 228 236 244 255 271 284 296 306 313 319 323 327 329 331 332 332 333 333 333 333 332 332 330 329 327 326 325 325 324 322 321 319 317 317 315 314 313 311 310 308 308 307
222 229 237 241 248 262 276 293 306 312 319 324 328 331 332 332 333 333 334 334 333 333 332 331 330 328 327 327 326 325 324 322 321 320 319 318 317 316 314 312 309 309 310
222 226 232 234 241 252 269 290 304 311 319 324 327 329 331 331 333 333 333 333 333 333 332 332 331 330 328 328 327 326 325 324 322 322 321 320 319 317 316 314 311 310 309
221 225 228 231 236 250 267 289 302 309 316 321 324 327 329 329 332 333 333 333 333 333 332 332 332 331 330 330 329 328 327 326 324 323 321 321 320 319 317 314 312 310 309
221 223 227 230 238 253 269 286 299 307 313 318 322 325 326 328 330 332 333 333 333 333 333 333 333 332 332 330 330 330 329 328 326 325 323 321 319 318 316 313 310 308 307
220 223 226 232 242 255 271 286 298 306 313 318 321 324 325 326 328 331 332 333 334 334 334 333 333 333 332 332 332 331 331 330 329 326 324 322 320 318 315 312 309 307 306
222 225 229 235 246 258 273 286 298 306 312 316 319 322 324 326 328 330 331 333 334 334 334 334 334 334 334 334 333 333 332 332 331 329 327 326 324 322 319 316 312 309 308
225 228 232 238 249 261 274 287 297 304 310 314 318 321 324 326 327 329 331 332 333 334 334 335 335 336 335 335 335 335 334 333 332 331 331 330 329 328 326 323 318 313 312
227 231 235 241 253 262 273 285 295 302 308 312 316 320 323 325 327 329 331 332 334 334 334 335 336 336 336 337 337 336 335 335 335 335 335 334 334 334 334 331 327 324 320
229 233 236 244 254 263 273 282 291 299 305 309 313 318 321 324 326 328 330 332 333 334 335 335 336 337 338 338 338 338 338 338 338 338 339 339 339 339 341 342 341 338 336
230 233 238 247 254 263 273 281 288 296 302 306 310 314 318 322 325 327 330 332 333 334 335 336 337 338 339 339 340 340 340 341 341 341 342 341 344 346 348 350 349 348 345
231 235 240 248 255 263 272 279 287 295 300 304 308 312 316 320 323 326 329 332 333 334 335 337 338 340 340 341 341 341 342 343 344 345 346 347 348 349 351 352 352 352 354
233 237 242 249 255 263 270 279 288 294 298 302 306 310 315 317 321 326 329 331 333 334 336 338 339 340 341 341 342 342 343 344 347 349 350 352 353 353 353 355 358 0 0
235 238 243 249 255 262 270 278 286 293 299 302 306 310 313 317 321 325 328 331 333 334 336 337 339 340 341 342 342 342 343 344 347 350 352 352 353 355 359 2 3 5 8
237 239 244 250 256 263 271 278 285 291 297 301 306 309 312 316 320 324 327 330 332 335 336 337 338 340 341 342 342 342 342 343 347 350 352 354 357 359 0 3 6 8 11
238 240 245 251 257 264 271 277 283 289 294 299 304 308 311 316 320 323 326 329 331 334 335 336 338 339 341 341 341 341 340 341 344 347 351 353 355 357 1 5 9 14 16
241 241 245 251 258 265 270 275 282 287 292 297 301 305 310 314 319 322 325 328 330 333 334 336 338 339 340 341 341 340 340 339 342 345 348 351 355 358 1 4 8 10 14
240 242 246 252 258 264 269 274 280 285 290 295 300 304 308 313 317 320 324 327 329 332 333 335 337 339 340 341 341 340 338 337 339 342 345 348 351 355 358 0 2 5 8
240 242 246 251 258 263 268 273 278 283 289 294 299 303 307 311 315 319 322 325 328 331 333 335 336 338 340 340 340 339 338 335 335 338 341 345 347 348 351 353 356 359 3
242 244 246 252 257 261 266 271 277 283 289 293 298 302 306 310 314 318 321 325 327 330 332 334 336 338 339 340 340 339 337 334 332 333 335 339 342 344 346 348 352 358 8
242 244 245 250 254 258 264 270 277 284 289 293 297 301 305 310 313 317 320 323 326 329 331 334 336 337 339 340 340 339 337 334 332 332 333 335 338 341 344 348 354 3 16
242 242 244 247 251 256 262 269 276 284 289 292 296 300 304 309 312 315 319 322 325 328 331 333 335 337 339 340 340 340 339 336 334 332 333 334 336 340 343 348 354 4 20
241 241 243 245 249 255 261 268 275 282 288 292 295 299 304 307 310 314 317 321 324 327 330 332 335 337 339 341 341 341 341 339 338 337 337 338 341 344 350 359 12 26 44